RYR45G LIPZ-LIMC

Flight info

Callsign RYR45G
Flight time N/A
Altitude 19000
Route VIC8X/04R VIC L615 IBUGO/N0337F180 L615 OSKOR/N0330F170 DCT LEGLO DCT PEXUG
Aircraft B738/M-SDE2E3FGHIRWXY/LB1

Departure

Time 2026-05-06 17:33
Airport Venice Marco Polo Airport (LIPZ)

Arrival

Time N/A
Airport Milan Malpensa International Airport (LIMC)
Time Latitude Longitude Altitude Speed Heading
2026-05-06 17:00 45.50698 12.34492 12 ft 0 kts 222°
2026-05-06 17:21 45.50707 12.34504 11 ft 2 kts 222°
2026-05-06 17:21 45.50718 12.34518 11 ft 2 kts 222°
2026-05-06 17:21 45.50726 12.34528 11 ft 0 kts 222°
2026-05-06 17:21 45.50737 12.34539 11 ft 2 kts 189°
2026-05-06 17:22 45.50752 12.34537 11 ft 2 kts 156°
2026-05-06 17:22 45.50760 12.34531 11 ft 1 kts 134°
2026-05-06 17:22 45.50764 12.34524 11 ft 0 kts 134°
2026-05-06 17:24 45.50763 12.34525 11 ft 1 kts 134°
2026-05-06 17:24 45.50735 12.34569 11 ft 6 kts 131°
2026-05-06 17:25 45.50709 12.34612 11 ft 0 kts 128°
2026-05-06 17:26 45.50709 12.34613 11 ft 0 kts 128°
2026-05-06 17:26 45.50706 12.34617 11 ft 0 kts 128°
2026-05-06 17:26 45.50705 12.34619 11 ft 2 kts 128°
2026-05-06 17:26 45.50702 12.34625 11 ft 0 kts 128°
2026-05-06 17:27 45.50691 12.34644 11 ft 9 kts 130°
2026-05-06 17:27 45.50630 12.34660 11 ft 9 kts 213°
2026-05-06 17:27 45.50600 12.34581 11 ft 10 kts 264°
2026-05-06 17:28 45.50595 12.34473 11 ft 10 kts 262°
2026-05-06 17:28 45.50563 12.34386 12 ft 9 kts 224°
2026-05-06 17:28 45.50504 12.34343 12 ft 10 kts 184°
2026-05-06 17:28 45.50436 12.34343 12 ft 9 kts 175°
2026-05-06 17:29 45.50365 12.34350 12 ft 13 kts 176°
2026-05-06 17:29 45.50265 12.34357 12 ft 14 kts 178°
2026-05-06 17:29 45.50167 12.34355 13 ft 15 kts 189°
2026-05-06 17:29 45.50064 12.34262 13 ft 20 kts 222°
2026-05-06 17:30 45.49950 12.34113 13 ft 22 kts 221°
2026-05-06 17:30 45.49837 12.33968 13 ft 21 kts 221°
2026-05-06 17:30 45.49728 12.33830 12 ft 20 kts 222°
2026-05-06 17:30 45.49625 12.33697 12 ft 16 kts 213°
2026-05-06 17:31 45.49557 12.33713 12 ft 6 kts 138°
2026-05-06 17:31 45.49498 12.33806 12 ft 15 kts 123°
2026-05-06 17:31 45.49503 12.33887 12 ft 0 kts 44°
2026-05-06 17:32 45.49524 12.33917 12 ft 13 kts 45°
2026-05-06 17:32 45.49771 12.34236 13 ft 81 kts 42°
2026-05-06 17:32 45.50340 12.34966 12 ft 137 kts 42°
2026-05-06 17:33 45.51145 12.35992 224 ft 163 kts 42°
2026-05-06 17:33 45.51907 12.37071 931 ft 155 kts 50°
2026-05-06 17:33 45.52637 12.38305 1324 ft 169 kts 50°
2026-05-06 17:33 45.53433 12.39611 1707 ft 183 kts 58°
2026-05-06 17:34 45.53749 12.41357 2016 ft 192 kts 98°
2026-05-06 17:34 45.53452 12.43233 2451 ft 201 kts 106°
2026-05-06 17:34 45.53142 12.45301 2671 ft 225 kts 102°
2026-05-06 17:34 45.52894 12.47584 3080 ft 241 kts 100°
2026-05-06 17:35 45.52567 12.49867 3936 ft 232 kts 111°
2026-05-06 17:35 45.51730 12.51724 4631 ft 225 kts 144°
2026-05-06 17:35 45.50340 12.52597 5252 ft 221 kts 174°
2026-05-06 17:36 45.47370 12.51944 6564 ft 219 kts 211°
2026-05-06 17:36 45.46326 12.50440 7226 ft 219 kts 240°
2026-05-06 17:36 45.45855 12.48349 7770 ft 230 kts 260°
2026-05-06 17:36 45.45858 12.45989 8166 ft 248 kts 278°
2026-05-06 17:37 45.46557 12.43668 8578 ft 268 kts 300°
2026-05-06 17:37 45.47661 12.41473 9073 ft 278 kts 297°
2026-05-06 17:37 45.48455 12.38965 9754 ft 278 kts 284°
2026-05-06 17:37 45.48996 12.36325 10313 ft 287 kts 281°
2026-05-06 17:38 45.49522 12.33520 10751 ft 301 kts 281°
2026-05-06 17:38 45.50103 12.30575 11127 ft 317 kts 282°
2026-05-06 17:38 45.50745 12.27516 11689 ft 327 kts 283°
2026-05-06 17:38 45.51413 12.24438 12356 ft 333 kts 283°
2026-05-06 17:39 45.52107 12.21266 13092 ft 337 kts 283°
2026-05-06 17:39 45.52802 12.18100 13827 ft 340 kts 282°
2026-05-06 17:39 45.53509 12.14885 14591 ft 343 kts 283°
2026-05-06 17:39 45.54233 12.11603 15370 ft 346 kts 282°
2026-05-06 17:40 45.54950 12.08335 16118 ft 348 kts 282°
2026-05-06 17:40 45.55670 12.05034 16831 ft 352 kts 282°
2026-05-06 17:40 45.56383 12.01752 17561 ft 353 kts 282°
2026-05-06 17:40 45.57114 11.98386 18275 ft 355 kts 282°
2026-05-06 17:41 45.57840 11.95036 18783 ft 359 kts 282°
2026-05-06 17:41 45.58581 11.91611 18884 ft 361 kts 282°
2026-05-06 17:41 45.59323 11.88184 18870 ft 360 kts 282°
2026-05-06 17:41 45.60061 11.84772 18868 ft 359 kts 282°
2026-05-06 17:42 45.60785 11.81411 18870 ft 359 kts 282°
2026-05-06 17:42 45.61518 11.78008 18870 ft 359 kts 282°
2026-05-06 17:42 45.62257 11.74564 18869 ft 360 kts 282°
2026-05-06 17:42 45.62944 11.71181 18863 ft 359 kts 279°
2026-05-06 17:43 45.63479 11.67702 18848 ft 355 kts 275°
2026-05-06 17:43 45.63795 11.64304 18781 ft 338 kts 271°
2026-05-06 17:43 45.63933 11.61033 18605 ft 324 kts 267°
2026-05-06 17:43 45.63935 11.57864 18408 ft 313 kts 264°
2026-05-06 17:44 45.63909 11.54762 18396 ft 322 kts 265°
2026-05-06 17:44 45.63933 11.51480 18648 ft 339 kts 267°
2026-05-06 17:44 45.63981 11.48032 18854 ft 347 kts 267°
2026-05-06 17:44 45.64028 11.44609 18868 ft 351 kts 267°
2026-05-06 17:45 45.64072 11.41152 18865 ft 348 kts 266°
2026-05-06 17:45 45.64109 11.37707 18870 ft 347 kts 266°
2026-05-06 17:45 45.64144 11.34205 18874 ft 349 kts 266°
2026-05-06 17:45 45.64181 11.30743 18873 ft 347 kts 266°
2026-05-06 17:46 45.64217 11.27309 18874 ft 349 kts 266°
2026-05-06 17:46 45.64254 11.23836 18877 ft 349 kts 266°
2026-05-06 17:46 45.64288 11.20409 18876 ft 348 kts 266°
2026-05-06 17:46 45.64321 11.16933 18879 ft 348 kts 266°
2026-05-06 17:47 45.64352 11.13488 18879 ft 350 kts 266°
2026-05-06 17:47 45.64383 11.10015 18875 ft 350 kts 266°
2026-05-06 17:47 45.64413 11.06540 18875 ft 352 kts 266°
2026-05-06 17:47 45.64438 11.03003 18877 ft 370 kts 266°
2026-05-06 17:48 45.64463 10.99197 18877 ft 387 kts 266°
2026-05-06 17:48 45.64490 10.95288 18877 ft 402 kts 266°
2026-05-06 17:48 45.64521 10.91285 18869 ft 406 kts 266°
2026-05-06 17:48 45.64555 10.87270 18868 ft 409 kts 266°
2026-05-06 17:49 45.64588 10.83206 18864 ft 409 kts 267°
2026-05-06 17:49 45.64623 10.79129 18863 ft 410 kts 267°
2026-05-06 17:49 45.64656 10.75104 18864 ft 410 kts 267°
2026-05-06 17:49 45.64688 10.71021 18864 ft 408 kts 267°
2026-05-06 17:50 45.64718 10.67021 18863 ft 409 kts 267°
2026-05-06 17:50 45.64747 10.62928 18871 ft 410 kts 267°
2026-05-06 17:50 45.64772 10.58880 18864 ft 409 kts 267°
2026-05-06 17:50 45.64792 10.54822 18870 ft 409 kts 267°
2026-05-06 17:51 45.64809 10.50757 18872 ft 412 kts 267°
2026-05-06 17:51 45.64823 10.46646 18876 ft 412 kts 267°
2026-05-06 17:51 45.64835 10.42571 18871 ft 410 kts 267°
2026-05-06 17:51 45.64848 10.38541 18871 ft 409 kts 267°
2026-05-06 17:52 45.64860 10.34483 18877 ft 412 kts 266°
2026-05-06 17:52 45.64873 10.30355 18879 ft 411 kts 266°
2026-05-06 17:52 45.64886 10.26296 18879 ft 412 kts 266°
2026-05-06 17:52 45.64897 10.22242 18865 ft 410 kts 266°
2026-05-06 17:53 45.64906 10.18153 18864 ft 411 kts 266°
2026-05-06 17:53 45.64913 10.14061 18878 ft 413 kts 266°
2026-05-06 17:53 45.64920 10.10024 18857 ft 409 kts 266°
2026-05-06 17:53 45.64932 10.05942 18849 ft 410 kts 266°
2026-05-06 17:54 45.64947 10.01913 18882 ft 411 kts 266°
2026-05-06 17:54 45.64960 9.97803 18870 ft 411 kts 266°
2026-05-06 17:54 45.64972 9.93744 18855 ft 412 kts 266°
2026-05-06 17:54 45.64983 9.89663 18863 ft 412 kts 266°
2026-05-06 17:55 45.64992 9.85565 18838 ft 411 kts 266°
2026-05-06 17:55 45.65000 9.81457 18852 ft 413 kts 266°
2026-05-06 17:55 45.65014 9.77408 18859 ft 400 kts 267°
2026-05-06 17:55 45.65041 9.73553 18842 ft 381 kts 268°
2026-05-06 17:56 45.65126 9.69881 18844 ft 362 kts 268°
2026-05-06 17:56 45.65226 9.66370 18839 ft 345 kts 268°
2026-05-06 17:56 45.65315 9.63029 18837 ft 328 kts 268°
2026-05-06 17:56 45.65362 9.59885 18835 ft 312 kts 266°
2026-05-06 17:57 45.65364 9.56816 18821 ft 305 kts 265°